| time (UTC) | temp F | wind direction | speed MPH | gust MPH | rain 1hr in | rain 24hr in | rain mn in | humidity % | barometer mb |
| 20260510153006 | 56 | 100 | 4.0 | 9.0 | 0.00 | 0.00 | 0.00 | 75 | 1016.8 |
| 20260510152004 | 55 | 159 | 5.0 | 11.0 | 0.00 | 0.00 | 0.00 | 77 | 1016.8 |
| 20260510151505 | 54 | 129 | 3.0 | 6.0 | 0.00 | 0.00 | 0.00 | 79 | 1016.8 |
| 20260510151005 | 54 | 100 | 2.0 | 6.0 | 0.00 | 0.00 | 0.00 | 80 | 1016.7 |
| 20260510150506 | 54 | 135 | 1.0 | 7.0 | 0.00 | 0.00 | 0.00 | 81 | 1016.5 |
| 20260510150005 | 54 | 141 | 3.0 | 7.0 | 0.00 | 0.00 | 0.00 | 80 | 1016.6 |
| 20260510145505 | 54 | 137 | 3.0 | 5.0 | 0.00 | 0.00 | 0.00 | 81 | 1016.9 |
| 20260510145005 | 54 | 156 | 3.0 | 5.0 | 0.00 | 0.00 | 0.00 | 82 | 1016.9 |
| 20260510144506 | 54 | 172 | 3.0 | 7.0 | 0.00 | 0.00 | 0.00 | 81 | 1016.9 |
| 20260510144004 | 54 | 140 | 4.0 | 7.0 | 0.00 | 0.00 | 0.00 | 81 | 1017.0 |
| 20260510143504 | 54 | 145 | 4.0 | 10.0 | 0.00 | 0.00 | 0.00 | 81 | 1016.9 |
| 20260510142506 | 54 | 110 | 4.0 | 11.0 | 0.00 | 0.00 | 0.00 | 81 | 1016.9 |
| 20260510142004 | 54 | 146 | 3.0 | 6.0 | 0.00 | 0.00 | 0.00 | 81 | 1016.5 |
| 20260510141505 | 54 | 137 | 3.0 | 6.0 | 0.00 | 0.00 | 0.00 | 82 | 1016.5 |
| 20260510140506 | 53 | 130 | 3.0 | 6.0 | 0.00 | 0.00 | 0.00 | 83 | 1016.5 |
| 20260510140007 | 53 | 178 | 2.0 | 6.0 | 0.00 | 0.00 | 0.00 | 84 | 1016.6 |
| 20260510135504 | 53 | 172 | 3.0 | 6.0 | 0.00 | 0.00 | 0.00 | 84 | 1016.5 |
| 20260510135005 | 53 | 148 | 2.0 | 3.0 | 0.00 | 0.00 | 0.00 | 85 | 1016.5 |
| 20260510134505 | 53 | 157 | 1.0 | 4.0 | 0.00 | 0.00 | 0.00 | 85 | 1016.4 |
| 20260510134005 | 52 | 129 | 2.0 | 4.0 | 0.00 | 0.00 | 0.00 | 85 | 1016.4 |
| 20260510133006 | 52 | 161 | 1.0 | 3.0 | 0.00 | 0.00 | 0.00 | 85 | 1016.5 |
| 20260510132505 | 52 | 121 | 2.0 | 3.0 | 0.00 | 0.00 | 0.00 | 85 | 1016.3 |
| 20260510132006 | 52 | 135 | 1.0 | 2.0 | 0.00 | 0.00 | 0.00 | 85 | 1016.4 |
| 20260510131004 | 51 | 161 | 1.0 | 3.0 | 0.00 | 0.00 | 0.00 | 86 | 1016.4 |
| 20260510130505 | 51 | 124 | 1.0 | 3.0 | 0.00 | 0.00 | 0.00 | 86 | 1016.2 |
| 20260510130006 | 51 | 145 | 1.0 | 2.0 | 0.00 | 0.00 | 0.00 | 86 | 1016.3 |
| 20260510125504 | 51 | 117 | 1.0 | 3.0 | 0.00 | 0.00 | 0.00 | 86 | 1016.2 |
| 20260510125006 | 52 | 135 | 1.0 | 3.0 | 0.00 | 0.00 | 0.00 | 86 | 1016.1 |
| 20260510124506 | 52 | 124 | 2.0 | 2.0 | 0.00 | 0.00 | 0.00 | 86 | 1016.2 |
| 20260510124005 | 52 | 113 | 1.0 | 3.0 | 0.00 | 0.00 | 0.00 | 87 | 1016.2 |
| 20260510123506 | 52 | 135 | 1.0 | 3.0 | 0.00 | 0.00 | 0.00 | 87 | 1016.1 |
| 20260510123007 | 52 | 105 | 1.0 | 2.0 | 0.00 | 0.00 | 0.00 | 88 | 1016.2 |
| 20260510122504 | 51 | 135 | 1.0 | 2.0 | 0.00 | 0.00 | 0.00 | 88 | 1016.3 |
| 20260510122006 | 52 | 124 | 1.0 | 2.0 | 0.00 | 0.00 | 0.00 | 89 | 1016.2 |
| 20260510121006 | 51 | 117 | 1.0 | 4.0 | 0.00 | 0.00 | 0.00 | 90 | 1016.3 |
| 20260510120504 | 51 | 89 | 1.0 | 2.0 | 0.00 | 0.00 | 0.00 | 90 | 1016.4 |
| 20260510120006 | 50 | 46 | 0.0 | 1.0 | 0.00 | 0.00 | 0.00 | 90 | 1016.3 |
| 20260510115505 | 50 | 314 | 1.0 | 1.0 | 0.00 | 0.00 | 0.00 | 89 | 1016.2 |
| 20260510114506 | 50 | 344 | 1.0 | 2.0 | 0.00 | 0.00 | 0.00 | 89 | 1016.1 |
| 20260510113506 | 51 | 324 | 1.0 | 2.0 | 0.00 | 0.00 | 0.00 | 88 | 1016.0 |
| 20260510113006 | 51 | 331 | 1.0 | 2.0 | 0.00 | 0.00 | 0.00 | 88 | 1016.0 |
| 20260510112504 | 51 | 331 | 1.0 | 3.0 | 0.00 | 0.00 | 0.00 | 87 | 1016.1 |
| 20260510111506 | 52 | 135 | 2.0 | 4.0 | 0.00 | 0.00 | 0.00 | 88 | 1016.2 |
| 20260510111004 | 51 | 113 | 2.0 | 4.0 | 0.00 | 0.00 | 0.00 | 90 | 1016.1 |
| 20260510110505 | 50 | 127 | 1.0 | 2.0 | 0.00 | 0.00 | 0.00 | 91 | 1016.1 |
| 20260510105504 | 50 | 46 | 0.0 | 2.0 | 0.00 | 0.00 | 0.00 | 90 | 1016.2 |
| 20260510105005 | 50 | 46 | 0.0 | 2.0 | 0.00 | 0.00 | 0.00 | 90 | 1016.2 |
| 20260510104505 | 50 | 331 | 1.0 | 2.0 | 0.00 | 0.00 | 0.00 | 90 | 1016.3 |
| 20260510103505 | 50 | 296 | 1.0 | 1.0 | 0.00 | 0.00 | 0.00 | 90 | 1016.1 |
| 20260510103005 | 50 | 1 | 1.0 | 1.0 | 0.00 | 0.00 | 0.00 | 89 | 1016.2 |
| 20260510102504 | 50 | 331 | 0.0 | 1.0 | 0.00 | 0.00 | 0.00 | 89 | 1016.2 |
| 20260510102005 | 51 | 1 | 0.0 | 1.0 | 0.00 | 0.00 | 0.00 | 89 | 1016.2 |
| 20260510101504 | 51 | 135 | 0.0 | 1.0 | 0.00 | 0.00 | 0.00 | 89 | 1016.1 |
| 20260510101006 | 51 | 1 | 0.0 | 2.0 | 0.00 | 0.00 | 0.00 | 89 | 1016.3 |
| 20260510100504 | 51 | 324 | 1.0 | 2.0 | 0.00 | 0.00 | 0.00 | 89 | 1016.2 |
| 20260510100006 | 51 | 331 | 0.0 | 1.0 | 0.00 | 0.00 | 0.00 | 88 | 1016.2 |
| 20260510095504 | 51 | 46 | 0.0 | 2.0 | 0.00 | 0.00 | 0.00 | 88 | 1016.2 |
| 20260510095005 | 51 | 1 | 0.0 | 2.0 | 0.00 | 0.00 | 0.00 | 87 | 1016.3 |
| 20260510094004 | 52 | 324 | 2.0 | 2.0 | 0.00 | 0.00 | 0.00 | 87 | 1016.2 |
| 20260510093505 | 52 | 331 | 1.0 | 2.0 | 0.00 | 0.00 | 0.00 | 86 | 1016.1 |
| 20260510093006 | 53 | 269 | 1.0 | 2.0 | 0.00 | 0.00 | 0.00 | 85 | 1016.1 |
| 20260510092506 | 53 | 314 | 1.0 | 2.0 | 0.00 | 0.00 | 0.00 | 84 | 1016.0 |
| 20260510092005 | 53 | 46 | 0.0 | 1.0 | 0.00 | 0.00 | 0.00 | 83 | 1016.1 |
| 20260510091505 | 54 | 314 | 0.0 | 1.0 | 0.00 | 0.00 | 0.00 | 83 | 1016.0 |
| 20260510091004 | 54 | 1 | 0.0 | 2.0 | 0.00 | 0.00 | 0.00 | 83 | 1016.0 |
| 20260510090504 | 54 | 269 | 1.0 | 2.0 | 0.00 | 0.00 | 0.00 | 83 | 1016.1 |
| 20260510090005 | 54 | 1 | 1.0 | 3.0 | 0.00 | 0.00 | 0.00 | 84 | 1016.0 |
| 20260510085505 | 54 | 234 | 1.0 | 3.0 | 0.00 | 0.00 | 0.00 | 84 | 1016.1 |
| 20260510085007 | 54 | 1 | 1.0 | 3.0 | 0.00 | 0.00 | 0.00 | 84 | 1016.0 |
| 20260510084505 | 54 | 254 | 1.0 | 3.0 | 0.00 | 0.00 | 0.00 | 84 | 1016.0 |
| 20260510084005 | 54 | 269 | 1.0 | 5.0 | 0.00 | 0.00 | 0.00 | 85 | 1016.0 |
| 20260510083005 | 53 | 286 | 1.0 | 2.0 | 0.00 | 0.00 | 0.00 | 86 | 1015.9 |
| 20260510082504 | 53 | 152 | 0.0 | 2.0 | 0.00 | 0.00 | 0.00 | 86 | 1016.0 |
| 20260510082005 | 53 | 269 | 0.0 | 2.0 | 0.00 | 0.00 | 0.00 | 85 | 1016.1 |
| 20260510081505 | 53 | 15 | 1.0 | 2.0 | 0.00 | 0.00 | 0.00 | 85 | 1016.1 |
| 20260510081006 | 53 | 336 | 1.0 | 2.0 | 0.00 | 0.00 | 0.00 | 84 | 1016.0 |
| 20260510080505 | 53 | 117 | 1.0 | 2.0 | 0.00 | 0.00 | 0.00 | 84 | 1015.9 |
| 20260510075501 | 53 | 340 | 1.0 | 2.0 | 0.00 | 0.00 | 0.00 | 84 | 1016.0 |
| 20260510075005 | 54 | 340 | 1.0 | 1.0 | 0.00 | 0.00 | 0.00 | 84 | 1015.8 |
| 20260510074505 | 54 | 314 | 0.0 | 1.0 | 0.00 | 0.00 | 0.00 | 83 | 1015.6 |
| 20260510074000 | 54 | 46 | 0.0 | 2.0 | 0.00 | 0.00 | 0.00 | 82 | 1015.7 |
| 20260510073500 | 55 | 223 | 0.0 | 4.0 | 0.00 | 0.00 | 0.00 | 83 | 1015.7 |
| 20260510073008 | 55 | 89 | 1.0 | 4.0 | 0.00 | 0.00 | 0.00 | 83 | 1015.7 |
| 20260510072505 | 54 | 113 | 1.0 | 3.0 | 0.00 | 0.00 | 0.00 | 84 | 1015.8 |
| 20260510072006 | 54 | 135 | 1.0 | 3.0 | 0.00 | 0.00 | 0.00 | 86 | 1016.0 |
| 20260510071505 | 53 | 46 | 0.0 | 2.0 | 0.00 | 0.00 | 0.00 | 87 | 1016.0 |
| 20260510070505 | 52 | 46 | 0.0 | 2.0 | 0.00 | 0.00 | 0.00 | 88 | 1016.0 |
| 20260510065506 | 51 | 340 | 1.0 | 2.0 | 0.00 | 0.00 | 0.00 | 88 | 1015.9 |
| 20260510065006 | 51 | 340 | 1.0 | 2.0 | 0.00 | 0.00 | 0.00 | 88 | 1016.0 |
| 20260510064505 | 51 | 340 | 1.0 | 2.0 | 0.00 | 0.00 | 0.00 | 87 | 1016.0 |
| 20260510064005 | 51 | 241 | 0.0 | 2.0 | 0.00 | 0.00 | 0.00 | 87 | 1015.9 |
| 20260510063504 | 51 | 324 | 1.0 | 2.0 | 0.00 | 0.00 | 0.00 | 87 | 1015.9 |
| 20260510063008 | 52 | 344 | 1.0 | 2.0 | 0.00 | 0.00 | 0.00 | 87 | 1015.8 |
| 20260510062504 | 52 | 344 | 0.0 | 1.0 | 0.00 | 0.00 | 0.00 | 87 | 1015.8 |
| 20260510061505 | 52 | 296 | 1.0 | 2.0 | 0.00 | 0.00 | 0.00 | 86 | 1015.7 |
| 20260510060504 | 52 | 314 | 1.0 | 2.0 | 0.00 | 0.00 | 0.00 | 86 | 1015.7 |
| 20260510060008 | 52 | 314 | 1.0 | 2.0 | 0.00 | 0.00 | 0.00 | 85 | 1015.7 |
| 20260510055505 | 52 | 269 | 0.0 | 2.0 | 0.00 | 0.00 | 0.00 | 85 | 1015.8 |
| 20260510055005 | 52 | 296 | 1.0 | 2.0 | 0.00 | 0.00 | 0.00 | 85 | 1015.8 |
| 20260510054507 | 53 | 1 | 0.0 | 1.0 | 0.00 | 0.00 | 0.00 | 86 | 1015.8 |
| 20260510054005 | 53 | 46 | 0.0 | 2.0 | 0.00 | 0.00 | 0.00 | 85 | 1015.9 |
| 20260510053505 | 53 | 347 | 1.0 | 2.0 | 0.00 | 0.00 | 0.00 | 85 | 1016.1 |
| 20260510053006 | 53 | 314 | 1.0 | 2.0 | 0.00 | 0.00 | 0.00 | 84 | 1016.1 |
| 20260510052506 | 53 | 331 | 1.0 | 2.0 | 0.00 | 0.00 | 0.00 | 84 | 1016.2 |
| 20260510052006 | 53 | 295 | 1.0 | 2.0 | 0.00 | 0.00 | 0.00 | 84 | 1016.2 |
| 20260510051505 | 53 | 344 | 1.0 | 2.0 | 0.00 | 0.00 | 0.00 | 84 | 1016.2 |
| 20260510050506 | 54 | 1 | 0.0 | 2.0 | 0.00 | 0.00 | 0.00 | 83 | 1016.3 |
| 20260510045506 | 54 | 314 | 0.0 | 1.0 | 0.00 | 0.00 | 0.00 | 82 | 1016.4 |
| 20260510044505 | 55 | 1 | 1.0 | 2.0 | 0.00 | 0.00 | 0.00 | 82 | 1016.4 |
| 20260510044005 | 55 | 314 | 0.0 | 1.0 | 0.00 | 0.00 | 0.00 | 81 | 1016.3 |
| 20260510042506 | 56 | 269 | 0.0 | 2.0 | 0.00 | 0.00 | 0.00 | 80 | 1016.2 |
| 20260510041505 | 56 | 336 | 2.0 | 2.0 | 0.00 | 0.00 | 0.00 | 79 | 1016.1 |
| 20260510041005 | 57 | 1 | 1.0 | 2.0 | 0.00 | 0.00 | 0.00 | 78 | 1015.9 |
| 20260510040504 | 57 | 336 | 1.0 | 2.0 | 0.00 | 0.00 | 0.00 | 77 | 1015.9 |
| 20260510040006 | 58 | 331 | 1.0 | 2.0 | 0.00 | 0.00 | 0.00 | 77 | 1015.8 |
| 20260510035505 | 58 | 1 | 0.0 | 2.0 | 0.00 | 0.00 | 0.00 | 75 | 1015.9 |
| 20260510035004 | 58 | 63 | 1.0 | 1.0 | 0.00 | 0.00 | 0.00 | 74 | 1016.0 |
| 20260510034504 | 59 | 269 | 0.0 | 1.0 | 0.00 | 0.00 | 0.00 | 72 | 1015.9 |
| 20260510034005 | 59 | 1 | 0.0 | 1.0 | 0.00 | 0.00 | 0.00 | 71 | 1016.0 |
| 20260510033505 | 59 | 1 | 0.0 | 1.0 | 0.00 | 0.00 | 0.00 | 70 | 1016.0 |
| 20260510033006 | 60 | 46 | 0.0 | 1.0 | 0.00 | 0.00 | 0.00 | 69 | 1016.0 |
| 20260510032504 | 60 | 28 | 0.0 | 1.0 | 0.00 | 0.00 | 0.00 | 69 | 1015.9 |
| 20260510032005 | 61 | 1 | 0.0 | 2.0 | 0.00 | 0.00 | 0.00 | 69 | 1015.9 |
| 20260510031505 | 61 | 46 | 0.0 | 2.0 | 0.00 | 0.00 | 0.00 | 68 | 1016.0 |
| 20260510031006 | 62 | 1 | 0.0 | 4.0 | 0.00 | 0.00 | 0.00 | 67 | 1016.0 |
| 20260510030007 | 63 | 284 | 1.0 | 2.0 | 0.00 | 0.00 | 0.00 | 65 | 1016.0 |
| 20260510025505 | 63 | 1 | 1.0 | 2.0 | 0.00 | 0.00 | 0.00 | 68 | 1016.0 |
| 20260510025005 | 63 | 46 | 1.0 | 2.0 | 0.00 | 0.00 | 0.00 | 69 | 1016.0 |
| 20260510024505 | 64 | 28 | 1.0 | 2.0 | 0.00 | 0.00 | 0.00 | 68 | 1016.0 |
| 20260510024006 | 64 | 124 | 0.0 | 2.0 | 0.00 | 0.00 | 0.00 | 66 | 1016.0 |
| 20260510023505 | 65 | 117 | 1.0 | 3.0 | 0.00 | 0.00 | 0.00 | 66 | 1016.0 |
| 20260510023006 | 65 | 213 | 1.0 | 3.0 | 0.00 | 0.00 | 0.00 | 65 | 1016.1 |
| 20260510022505 | 65 | 117 | 2.0 | 3.0 | 0.00 | 0.00 | 0.00 | 65 | 1016.1 |
| 20260510022005 | 65 | 117 | 1.0 | 2.0 | 0.00 | 0.00 | 0.00 | 63 | 1016.1 |
| 20260510021506 | 66 | 89 | 1.0 | 2.0 | 0.00 | 0.00 | 0.00 | 61 | 1016.0 |
| 20260510021005 | 66 | 72 | 1.0 | 2.0 | 0.00 | 0.00 | 0.00 | 62 | 1016.2 |
| 20260510020506 | 67 | 1 | 1.0 | 2.0 | 0.00 | 0.00 | 0.00 | 59 | 1016.2 |
| 20260510020008 | 67 | 39 | 1.0 | 2.0 | 0.00 | 0.00 | 0.00 | 58 | 1016.3 |
| 20260510015505 | 67 | 20 | 1.0 | 3.0 | 0.00 | 0.00 | 0.00 | 57 | 1016.4 |
| 20260510015005 | 67 | 46 | 1.0 | 3.0 | 0.00 | 0.00 | 0.00 | 57 | 1016.4 |
| 20260510014506 | 67 | 344 | 2.0 | 5.0 | 0.00 | 0.00 | 0.00 | 58 | 1016.5 |
| 20260510014006 | 67 | 28 | 3.0 | 5.0 | 0.00 | 0.00 | 0.00 | 59 | 1016.7 |
| 20260510013505 | 67 | 350 | 2.0 | 5.0 | 0.00 | 0.00 | 0.00 | 60 | 1016.8 |
| 20260510012505 | 67 | 331 | 2.0 | 4.0 | 0.00 | 0.00 | 0.00 | 60 | 1016.9 |
| 20260510012006 | 67 | 324 | 2.0 | 5.0 | 0.00 | 0.00 | 0.00 | 57 | 1017.0 |
| 20260510011506 | 68 | 331 | 2.0 | 5.0 | 0.00 | 0.00 | 0.00 | 59 | 1017.1 |
| 20260510011005 | 68 | 321 | 2.0 | 3.0 | 0.00 | 0.00 | 0.00 | 56 | 1017.2 |
| 20260510010005 | 68 | 269 | 1.0 | 4.0 | 0.00 | 0.00 | 0.00 | 62 | 1017.3 |
| 20260510005505 | 68 | 336 | 2.0 | 4.0 | 0.00 | 0.00 | 0.00 | 55 | 1017.3 |
| 20260510005006 | 69 | 28 | 1.0 | 4.0 | 0.00 | 0.00 | 0.00 | 57 | 1017.3 |
| 20260510004505 | 69 | 11 | 1.0 | 3.0 | 0.00 | 0.00 | 0.00 | 57 | 1017.4 |
| 20260510004006 | 69 | 15 | 1.0 | 4.0 | 0.00 | 0.00 | 0.00 | 57 | 1017.5 |
| 20260510003505 | 68 | 1 | 1.0 | 4.0 | 0.00 | 0.00 | 0.00 | 61 | 1017.6 |
| 20260510003006 | 68 | 20 | 1.0 | 3.0 | 0.00 | 0.00 | 0.00 | 62 | 1017.5 |
| 20260510002504 | 67 | 293 | 1.0 | 6.0 | 0.00 | 0.00 | 0.00 | 59 | 1017.6 |
| 20260510002006 | 67 | 28 | 3.0 | 6.0 | 0.00 | 0.00 | 0.00 | 57 | 1017.6 |
| 20260510001506 | 67 | 56 | 2.0 | 3.0 | 0.00 | 0.00 | 0.00 | 61 | 1017.9 |
| 20260510001006 | 67 | 8 | 2.0 | 4.0 | 0.00 | 0.00 | 0.00 | 57 | 1017.9 |
| 20260510000506 | 67 | 324 | 2.0 | 6.0 | 0.00 | 0.00 | 0.00 | 56 | 1018.2 |
| 20260510000006 | 67 | 278 | 3.0 | 6.0 | 0.00 | 0.00 | 0.00 | 58 | 1018.2 |
| 20260509235005 | 67 | 1 | 2.0 | 5.0 | 0.00 | 0.00 | 0.00 | 63 | 1018.3 |
| 20260509234505 | 67 | 338 | 3.0 | 5.0 | 0.00 | 0.00 | 0.00 | 58 | 1018.3 |
| 20260509234005 | 67 | 11 | 2.0 | 6.0 | 0.00 | 0.00 | 0.00 | 63 | 1018.4 |
| 20260509233506 | 67 | 314 | 2.0 | 6.0 | 0.00 | 0.00 | 0.00 | 56 | 1018.6 |
| 20260509232506 | 67 | 1 | 2.0 | 6.0 | 0.00 | 0.00 | 0.00 | 58 | 1018.7 |
| 20260509232006 | 67 | 344 | 3.0 | 7.0 | 0.00 | 0.00 | 0.00 | 56 | 1018.7 |
| 20260509231506 | 67 | 286 | 2.0 | 7.0 | 0.00 | 0.00 | 0.00 | 60 | 1018.8 |
| 20260509231004 | 67 | 341 | 3.0 | 6.0 | 0.00 | 0.00 | 0.00 | 57 | 1019.0 |
| 20260509230505 | 67 | 351 | 3.0 | 6.0 | 0.00 | 0.00 | 0.00 | 56 | 1019.0 |
| 20260509230006 | 67 | 249 | 3.0 | 7.0 | 0.00 | 0.00 | 0.00 | 58 | 1019.0 |
| 20260509225006 | 66 | 215 | 2.0 | 11.0 | 0.00 | 0.00 | 0.00 | 57 | 1019.2 |
| 20260509224006 | 67 | 228 | 3.0 | 7.0 | 0.00 | 0.00 | 0.00 | 58 | 1019.4 |
| 20260509223505 | 67 | 303 | 3.0 | 7.0 | 0.00 | 0.00 | 0.00 | 57 | 1019.5 |
| 20260509223007 | 66 | 321 | 2.0 | 5.0 | 0.00 | 0.00 | 0.00 | 59 | 1019.5 |
| 20260509222006 | 65 | 1 | 4.0 | 8.0 | 0.00 | 0.00 | 0.00 | 59 | 1019.7 |
| 20260509221505 | 65 | 4 | 3.0 | 7.0 | 0.00 | 0.00 | 0.00 | 59 | 1019.7 |
| 20260509221005 | 65 | 345 | 4.0 | 7.0 | 0.00 | 0.00 | 0.00 | 59 | 1019.8 |
| 20260509220505 | 65 | 296 | 3.0 | 6.0 | 0.00 | 0.00 | 0.00 | 60 | 1019.8 |
| 20260509220010 | 65 | 35 | 3.0 | 6.0 | 0.00 | 0.00 | 0.00 | 59 | 1019.8 |
| 20260509215005 | 65 | 290 | 2.0 | 7.0 | 0.00 | 0.00 | 0.00 | 60 | 1019.7 |
| 20260509214506 | 65 | 11 | 3.0 | 7.0 | 0.00 | 0.00 | 0.00 | 59 | 1019.8 |
| 20260509213505 | 65 | 9 | 4.0 | 7.0 | 0.00 | 0.00 | 0.00 | 59 | 1019.9 |
| 20260509213006 | 66 | 283 | 3.0 | 8.0 | 0.00 | 0.00 | 0.00 | 60 | 1020.0 |
| 20260509212505 | 66 | 314 | 3.0 | 6.0 | 0.00 | 0.00 | 0.00 | 63 | 1020.1 |
| 20260509212005 | 65 | 1 | 3.0 | 8.0 | 0.00 | 0.00 | 0.00 | 61 | 1020.1 |
| 20260509211505 | 65 | 296 | 4.0 | 8.0 | 0.00 | 0.00 | 0.00 | 64 | 1020.2 |
| 20260509211006 | 64 | 221 | 3.0 | 10.0 | 0.00 | 0.00 | 0.00 | 63 | 1020.3 |
| 20260509210504 | 64 | 284 | 4.0 | 10.0 | 0.00 | 0.00 | 0.00 | 64 | 1020.3 |
| 20260509210006 | 63 | 117 | 5.0 | 9.0 | 0.00 | 0.00 | 0.00 | 63 | 1020.1 |
| 20260509205506 | 64 | 226 | 4.0 | 7.0 | 0.00 | 0.00 | 0.00 | 61 | 1020.2 |
| 20260509205005 | 64 | 241 | 2.0 | 8.0 | 0.00 | 0.00 | 0.00 | 63 | 1020.0 |
| 20260509204506 | 65 | 283 | 3.0 | 8.0 | 0.00 | 0.00 | 0.00 | 60 | 1020.0 |
| 20260509204006 | 65 | 323 | 4.0 | 6.0 | 0.00 | 0.00 | 0.00 | 61 | 1020.1 |
| 20260509203006 | 65 | 46 | 3.0 | 9.0 | 0.00 | 0.00 | 0.00 | 62 | 1020.1 |
| 20260509202505 | 65 | 244 | 5.0 | 9.0 | 0.00 | 0.00 | 0.00 | 61 | 1020.2 |
| 20260509202006 | 65 | 286 | 3.0 | 10.0 | 0.00 | 0.00 | 0.00 | 60 | 1020.2 |
| 20260509201506 | 65 | 343 | 4.0 | 9.0 | 0.00 | 0.00 | 0.00 | 61 | 1020.2 |
| 20260509201005 | 66 | 249 | 4.0 | 9.0 | 0.00 | 0.00 | 0.00 | 60 | 1020.4 |
| 20260509200505 | 66 | 23 | 2.0 | 7.0 | 0.00 | 0.00 | 0.00 | 66 | 1020.3 |
| 20260509200006 | 66 | 316 | 4.0 | 7.0 | 0.00 | 0.00 | 0.00 | 58 | 1020.3 |
| 20260509195505 | 66 | 89 | 2.0 | 5.0 | 0.00 | 0.00 | 0.00 | 56 | 1020.3 |
| 20260509194504 | 65 | 324 | 2.0 | 4.0 | 0.00 | 0.00 | 0.00 | 56 | 1020.5 |
| 20260509194005 | 65 | 1 | 1.0 | 6.0 | 0.00 | 0.00 | 0.00 | 58 | 1020.6 |
| 20260509193505 | 65 | 1 | 3.0 | 7.0 | 0.00 | 0.00 | 0.00 | 57 | 1020.7 |
| 20260509192006 | 65 | 314 | 2.0 | 4.0 | 0.00 | 0.00 | 0.00 | 58 | 1020.7 |
| 20260509191506 | 65 | 1 | 1.0 | 5.0 | 0.00 | 0.00 | 0.00 | 61 | 1020.8 |
| 20260509191005 | 65 | 35 | 3.0 | 6.0 | 0.00 | 0.00 | 0.00 | 60 | 1020.8 |
| 20260509190505 | 65 | 331 | 3.0 | 4.0 | 0.00 | 0.00 | 0.00 | 59 | 1020.9 |
| 20260509185505 | 64 | 28 | 3.0 | 6.0 | 0.00 | 0.00 | 0.00 | 59 | 1021.0 |
| 20260509185005 | 64 | 1 | 3.0 | 4.0 | 0.00 | 0.00 | 0.00 | 60 | 1021.0 |
| 20260509184505 | 64 | 347 | 2.0 | 4.0 | 0.00 | 0.00 | 0.00 | 64 | 1020.9 |
| 20260509184004 | 64 | 350 | 2.0 | 4.0 | 0.00 | 0.00 | 0.00 | 63 | 1020.9 |
| 20260509183504 | 64 | 1 | 2.0 | 4.0 | 0.00 | 0.00 | 0.00 | 64 | 1020.9 |
| 20260509183007 | 63 | 89 | 1.0 | 4.0 | 0.00 | 0.00 | 0.00 | 63 | 1021.0 |
| 20260509182505 | 63 | 41 | 2.0 | 6.0 | 0.00 | 0.00 | 0.00 | 62 | 1021.0 |
| 20260509182005 | 63 | 201 | 3.0 | 6.0 | 0.00 | 0.00 | 0.00 | 61 | 1021.2 |
| 20260509181506 | 62 | 349 | 2.0 | 4.0 | 0.00 | 0.00 | 0.00 | 62 | 1021.1 |
| 20260509181005 | 63 | 40 | 3.0 | 5.0 | 0.00 | 0.00 | 0.00 | 64 | 1021.2 |
| 20260509180505 | 62 | 322 | 2.0 | 5.0 | 0.00 | 0.00 | 0.00 | 65 | 1021.1 |
| 20260509180005 | 62 | 296 | 2.0 | 4.0 | 0.00 | 0.00 | 0.00 | 64 | 1021.2 |
| 20260509175505 | 62 | 135 | 2.0 | 5.0 | 0.00 | 0.00 | 0.00 | 66 | 1021.1 |
| 20260509175006 | 62 | 37 | 2.0 | 3.0 | 0.00 | 0.00 | 0.00 | 62 | 1021.2 |
| 20260509174506 | 62 | 1 | 1.0 | 3.0 | 0.00 | 0.00 | 0.00 | 66 | 1021.2 |
| 20260509174005 | 62 | 15 | 1.0 | 6.0 | 0.00 | 0.00 | 0.00 | 65 | 1021.3 |
| 20260509173505 | 61 | 46 | 2.0 | 7.0 | 0.00 | 0.00 | 0.00 | 66 | 1021.3 |
| 20260509173007 | 61 | 308 | 3.0 | 7.0 | 0.00 | 0.00 | 0.00 | 65 | 1021.5 |
| 20260509172504 | 61 | 338 | 2.0 | 4.0 | 0.00 | 0.00 | 0.00 | 66 | 1021.5 |
| 20260509172005 | 61 | 206 | 2.0 | 4.0 | 0.00 | 0.00 | 0.00 | 66 | 1021.5 |
| 20260509171506 | 61 | 63 | 1.0 | 4.0 | 0.00 | 0.00 | 0.00 | 68 | 1021.6 |
| 20260509171006 | 60 | 23 | 2.0 | 4.0 | 0.00 | 0.00 | 0.00 | 67 | 1021.7 |
| 20260509170504 | 60 | 32 | 2.0 | 4.0 | 0.00 | 0.00 | 0.00 | 70 | 1021.8 |
| 20260509170006 | 60 | 1 | 2.0 | 4.0 | 0.00 | 0.00 | 0.00 | 70 | 1021.9 |
| 20260509165506 | 60 | 178 | 2.0 | 4.0 | 0.00 | 0.00 | 0.00 | 70 | 1021.8 |
| 20260509165005 | 60 | 35 | 2.0 | 3.0 | 0.00 | 0.00 | 0.00 | 70 | 1021.7 |
| 20260509164006 | 59 | 1 | 2.0 | 5.0 | 0.00 | 0.00 | 0.00 | 69 | 1022.0 |
| 20260509163008 | 59 | 32 | 2.0 | 3.0 | 0.00 | 0.00 | 0.00 | 71 | 1022.1 |
| 20260509162504 | 59 | 18 | 1.0 | 4.0 | 0.00 | 0.00 | 0.00 | 73 | 1022.1 |
| 20260509161506 | 59 | 32 | 2.0 | 3.0 | 0.00 | 0.00 | 0.00 | 73 | 1022.3 |
| 20260509161006 | 59 | 300 | 1.0 | 4.0 | 0.00 | 0.00 | 0.00 | 73 | 1022.3 |
| 20260509160006 | 58 | 296 | 2.0 | 5.0 | 0.00 | 0.00 | 0.00 | 73 | 1022.4 |
| 20260509155505 | 58 | 347 | 1.0 | 3.0 | 0.00 | 0.00 | 0.00 | 71 | 1022.3 |
| 20260509155005 | 58 | 331 | 1.0 | 3.0 | 0.00 | 0.00 | 0.00 | 76 | 1022.3 |
| 20260509154506 | 57 | 279 | 1.0 | 3.0 | 0.00 | 0.00 | 0.00 | 76 | 1022.3 |
| 20260509153505 | 56 | 28 | 2.0 | 4.0 | 0.00 | 0.00 | 0.00 | 80 | 1022.2 |